Find Skykraft 3D

NORAD ID: 57956 Int'l Des: 2023-084 Owner: SKYKR Country: AU operational
LEOCIRCULARRETROGRADE

实时位置

正在加载3D地球...

关于 Skykraft 3D

正在加载描述...

即将过境

Passes for default location (London). Set your location on the main map for personalized predictions.

高度历史

Loading altitude history...

两行轨道根数

1 57956U 23084BZ 26105.93595256 .00054297 00000-0 45579-3 0 9997
2 57956 97.6037 259.3715 0003486 157.2979 202.8437 15.69759389145377
Epoch: Apr 15, 2026 • Age: 7 hours

当前状态

高度 359.7 km
速度 7.70 km/s
星下点 17.51°N, 158.64°E
发射日期 Jun 12, 2023
运行时间 2.8 years
类型 other

技术详情

分类 Payload
质量 50.00 kg
干质量 50.00 kg
总质量 50.00 kg
长度 0.60 m
直径 0.10 m
跨度 0.60 m
形状 Box
制造商 SKYKR
平台类型 Skykraft
阶段状态 In Orbit
所有者/国家 SKYKR/AU

Most Searched